Location: �perlecques
(50.8057°N, 2.1521°E)
Time: 11:07:21
(UTC+00:00)

Meteor 2-10 Rocket - Pass Details

Date: 09 April 2020
Orbit: 734 x 884 km, 81.2° (Epoch: 23 May)

Event Time Altitude Azimuth Distance (km) Brightness Sun altitude
Exits shadow 20:33:52 29° 119° (ESE) 1,408 4.3 -17.3°
Maximum altitude 20:35:13 34° 90° (E) 1,302 4.3 -17.4°
Drops below altitude 10° 20:40:04 10° 28° (NNE) 2,427 6.2 -18.0°
Sets 20:42:43 0° 19° (NNE) 3,390 7.1 -18.4°
